Theta_e
302 302 302 303 303 303 303 304 304 306 307 309 314 314 314 313 313 307 303 308 307 302 305 307 307 300 300 298 293 300 297 297 295 289 290 290 289 292 291 296 293 290 286 286 285 280 282 302 302 294 296 300 300 299
302 302 303 303 303 303 303 304 305 306 308 308 313 313 313 313 313 310 301 313 313 304 304 308 308 308 306 305 300 299 298 298 297 293 293 293 292 292 290 286 298 291 292 290 290 289 297 301 297 301 301 299 298 296
303 303 303 303 303 303 304 304 305 306 307 308 312 313 313 313 313 309 304 306 307 302 302 302 303 305 307 307 306 298 300 303 303 302 297 294 292 293 287 289 290 294 297 294 293 294 296 298 299 299 299 297 298 300
302 303 303 303 303 303 303 303 304 305 306 307 312 312 313 313 312 311 304 310 307 303 297 299 307 304 308 308 307 305 304 304 303 300 296 294 291 295 290 292 291 294 294 292 292 295 297 299 299 300 301 301 301 303
302 302 303 303 303 303 303 303 304 304 306 307 312 311 312 313 311 309 307 308 309 304 296 298 303 305 307 306 305 305 303 300 297 294 293 293 295 294 293 292 290 295 293 289 289 296 294 295 298 300 300 300 301 301
301 302 302 302 303 303 303 303 303 304 305 307 312 310 311 312 310 306 301 309 309 308 299 293 301 302 304 304 302 302 301 299 297 295 294 295 298 293 287 288 295 296 297 297 295 298 297 298 302 302 301 300 303 303
301 301 302 303 303 303 303 303 303 304 305 306 309 311 311 310 307 303 300 303 305 309 300 294 295 302 303 301 299 298 298 297 296 294 292 292 294 294 290 287 294 297 298 299 300 299 297 300 297 302 303 305 304 301
301 302 302 302 303 303 303 303 304 304 306 308 310 310 310 309 306 303 305 307 308 307 304 293 296 296 302 296 295 299 295 294 294 293 294 292 293 292 287 293 296 299 300 299 302 301 299 300 301 302 303 303 300 298
301 302 302 302 302 303 304 303 304 305 306 308 309 310 307 303 299 301 309 309 308 304 295 296 293 291 301 298 298 297 296 289 294 290 291 293 290 286 292 294 296 299 298 300 302 301 302 301 301 302 303 300 298 297
302 302 302 302 302 303 304 305 305 306 307 309 305 296 291 300 310 308 301 298 299 300 300 294 299 293 298 296 295 293 293 289 286 291 295 290 289 294 297 298 299 301 301 301 298 299 298 299 300 300 301 301 300 298
301 302 302 302 302 302 303 304 306 307 308 299 294 292 299 308 300 296 289 290 292 292 296 295 297 295 300 293 293 294 290 291 284 289 289 287 287 294 299 300 301 301 300 299 299 300 300 301 301 301 300 299 299 298
301 301 302 302 302 301 303 304 305 305 300 298 299 302 300 294 289 286 286 290 291 290 293 293 296 299 298 301 293 292 290 291 286 294 289 285 291 297 300 300 300 300 301 300 301 303 302 304 302 299 297 297 297 298
301 301 301 302 303 304 304 305 305 305 304 299 295 291 290 287 283 285 284 289 288 292 293 293 294 294 295 296 292 291 288 285 293 285 285 289 295 298 298 299 299 300 301 301 302 303 303 302 301 299 298 297 298 297
301 301 302 303 303 303 304 306 306 304 299 290 286 282 286 284 287 288 289 290 294 295 295 297 292 292 292 290 290 288 290 290 285 284 285 291 295 297 299 300 298 297 297 298 301 302 300 300 300 300 299 299 298 297
301 302 302 303 304 304 306 306 306 302 296 291 291 285 286 291 292 293 296 296 297 299 297 293 292 291 289 290 290 289 286 284 286 284 289 294 297 299 298 299 297 296 296 297 299 300 299 299 298 298 298 298 300 299
302 303 302 305 306 306 306 305 301 299 295 293 293 292 293 293 294 295 296 295 300 296 295 294 289 288 288 289 288 286 285 282 284 287 294 296 297 298 298 298 298 298 298 298 299 298 298 297 296 296 297 300 302 301
302 301 305 305 305 304 303 298 297 293 291 290 293 298 296 297 294 295 297 297 300 295 289 290 286 287 292 287 287 288 283 285 291 294 296 296 296 297 298 299 299 299 298 297 299 297 296 297 297 296 294 296 297 298
300 302 304 304 303 300 298 297 293 292 290 293 293 297 299 299 297 296 297 298 297 295 292 288 292 287 286 287 286 291 292 294 295 296 296 297 298 299 300 299 300 300 298 298 299 297 296 296 295 294 294 295 296 296
302 302 304 304 301 297 293 294 295 290 293 297 298 299 299 299 300 299 299 299 299 297 294 290 288 286 286 289 291 292 292 294 294 295 296 298 298 299 300 300 301 299 298 299 299 296 296 297 296 296 296 297 294 296
303 303 303 303 303 297 294 294 299 295 291 295 297 296 296 296 296 297 298 297 295 294 291 289 288 289 292 294 295 295 296 296 295 294 294 296 298 299 299 299 299 299 299 299 299 296 296 296 296 297 297 297 295 295
301 301 303 303 300 300 298 296 295 295 295 294 296 295 294 297 295 294 294 296 294 292 290 291 293 296 298 298 299 298 297 297 294 294 294 294 297 298 298 299 300 299 298 298 298 298 296 297 298 298 298 296 297 297
299 302 299 301 297 298 295 297 294 295 293 294 293 294 291 291 292 292 295 293 292 293 292 293 296 298 299 299 300 299 299 300 298 296 293 294 295 297 297 299 299 299 299 299 300 298 298 298 299 298 298 299 297 297
301 300 296 297 293 290 291 297 291 292 289 290 292 290 290 290 292 295 290 292 292 294 294 297 298 300 301 302 302 302 302 300 298 298 299 298 298 300 300 300 301 300 298 299 299 299 299 296 297 298 300 300 296 295
302 296 293 291 289 287 294 291 292 291 291 289 287 287 288 289 292 289 287 289 292 293 295 300 299 297 298 299 297 299 300 300 299 299 300 299 299 299 299 299 300 301 301 300 301 300 300 298 297 297 298 296 297 296
291 286 288 279 291 290 290 290 290 289 287 289 289 288 288 291 287 287 287 289 291 293 297 298 298 297 296 296 297 299 302 301 299 298 299 300 299 297 297 297 301 302 303 301 301 299 299 298 297 297 296 296 296 296
280 289 285 289 289 289 289 288 288 288 289 289 290 291 291 289 287 287 290 293 293 296 297 297 297 296 296 297 298 298 300 302 300 298 298 301 299 297 296 298 296 297 301 300 299 298 298 298 297 297 297 297 292 298
282 290 292 296 292 292 289 290 290 288 288 290 290 290 290 287 288 292 297 298 297 300 301 301 300 299 299 300 301 302 303 302 303 302 302 301 301 302 300 300 299 298 301 300 300 299 299 298 298 299 299 298 298 300
294 296 292 293 292 293 290 290 290 290 291 293 293 290 290 292 290 296 298 302 302 302 302 303 302 302 302 303 303 303 302 303 305 304 304 302 301 301 302 302 301 292 303 302 302 301 301 299 299 300 300 299 300 301
295 296 295 292 294 295 295 294 294 295 295 293 292 291 293 298 300 299 299 301 302 301 300 300 301 303 303 303 303 303 304 303 303 299 297 297 298 300 301 301 300 301 300 298 290 296 300 299 299 300 301 301 303 302
297 297 295 295 294 292 296 297 296 300 299 298 298 297 296 297 299 302 300 299 299 299 300 301 301 301 300 300 301 302 304 306 305 301 298 298 299 302 301 304 303 301 301 298 297 295 287 294 293 297 298 301 300 299
299 297 295 293 294 295 296 298 298 298 298 297 298 295 293 295 298 300 300 301 300 300 300 300 300 301 302 302 302 301 300 305 307 306 304 303 303 301 302 303 305 303 302 302 298 296 295 294 296 298 299 299 300 298
295 294 293 291 292 296 298 295 294 293 294 294 294 296 295 294 292 296 300 301 300 299 295 299 302 301 304 306 304 301 294 301 302 304 305 304 303 303 304 304 303 304 302 302 301 298 297 297 297 298 299 300 300 299
295 295 295 294 293 294 295 295 292 291 293 292 293 296 296 294 292 297 301 303 301 301 301 303 305 305 306 304 300 296 293 294 288 285 286 288 289 292 298 300 304 303 301 300 300 301 300 300 300 299 300 300 300 301
Wind_Speed
17 18 18 17 16 16 15 16 17 17 16 18 18 15 16 14 12 6 5 5 4 3 5 4 5 3 3 4 5 3 5 5 4 3 4 5 4 4 2 3 8 7 6 4 3 2 6 5 1 5 7 4 7 4
18 17 17 16 16 16 15 16 16 17 15 14 17 16 13 14 13 8 4 2 3 2 5 2 0 1 3 6 6 2 6 3 5 4 1 1 1 2 2 2 5 1 7 6 8 7 5 2 2 3 4 6 3 6
20 19 17 15 16 16 14 14 15 16 14 14 18 16 16 16 13 11 3 4 3 1 4 2 3 1 5 4 3 6 2 3 2 3 4 2 2 3 2 3 2 5 2 3 4 2 5 7 4 5 5 6 6 7
18 17 18 17 16 15 15 15 14 14 14 14 17 18 16 16 14 10 4 2 2 2 3 4 0 5 5 6 6 5 6 4 4 3 2 2 2 2 4 3 3 5 1 4 1 2 5 4 5 5 4 5 9 6
17 17 17 17 16 16 15 15 14 14 13 13 18 19 18 15 12 3 2 4 1 4 5 3 3 2 6 7 8 7 7 4 3 2 3 2 1 3 2 2 3 3 4 4 6 6 6 4 4 3 5 6 7 9
16 16 16 16 16 16 16 15 15 15 14 12 16 17 15 12 11 3 2 3 0 4 3 3 2 4 4 7 8 6 4 3 3 3 3 1 1 5 2 3 4 2 2 6 5 5 6 3 8 6 7 6 6 8
16 17 17 16 16 15 15 16 16 15 16 13 15 20 18 17 6 3 2 1 3 1 2 2 2 2 6 5 3 3 4 2 4 1 1 2 1 4 2 4 5 5 3 5 5 7 6 5 2 6 9 7 9 8
17 17 16 15 15 14 14 14 15 15 14 13 15 17 16 14 8 2 1 4 2 3 2 4 2 3 5 3 2 2 2 3 3 3 1 2 2 3 4 7 6 6 5 4 7 7 6 6 5 5 7 9 9 8
17 17 17 16 15 13 13 13 14 14 13 14 21 18 5 2 3 3 5 8 2 3 4 3 6 4 4 3 3 3 3 2 1 2 3 4 2 5 7 7 5 2 5 5 5 8 7 6 9 7 7 8 9 6
14 15 15 15 14 12 13 13 14 13 14 17 10 4 0 5 13 8 5 3 3 1 1 3 2 3 5 3 2 3 1 3 2 5 2 3 5 6 7 8 5 7 8 7 5 5 6 5 7 6 7 7 6 6
12 12 14 12 11 10 9 7 11 11 13 1 4 2 2 13 4 4 3 2 2 3 3 4 4 3 0 5 3 2 3 2 2 5 5 2 4 6 9 10 7 6 4 4 4 4 6 11 9 7 6 6 7 8
11 10 11 13 10 10 11 10 9 8 3 5 8 5 3 4 4 4 5 4 5 7 5 7 9 5 2 5 4 1 3 2 4 3 3 3 4 2 8 9 8 6 4 3 2 7 9 12 9 9 8 7 7 7
7 6 3 7 10 14 13 10 12 19 19 4 5 3 3 2 4 9 10 5 4 5 6 5 7 5 3 4 3 3 3 5 2 2 4 5 3 5 7 6 7 7 6 2 5 8 10 12 10 10 8 6 7 6
6 7 7 6 9 11 9 18 29 11 5 4 5 5 4 5 7 7 7 6 5 6 11 12 4 5 3 4 4 4 5 4 3 4 6 4 7 7 6 5 7 4 5 4 10 13 13 12 10 9 8 8 7 6
9 9 9 10 11 6 26 30 15 4 3 4 5 6 9 5 4 4 5 4 5 11 10 6 5 5 2 4 3 2 4 4 5 4 4 4 7 8 8 7 7 5 2 5 5 8 7 8 7 6 6 7 7 6
6 10 8 12 10 30 25 14 5 3 1 1 2 2 4 3 3 4 6 7 10 7 5 5 4 4 3 4 4 6 5 6 4 4 4 5 7 7 7 7 6 6 3 3 3 8 8 7 8 7 6 6 7 7
11 3 23 29 24 20 17 6 3 3 0 2 3 3 2 3 4 5 8 9 8 6 4 5 5 7 4 3 4 5 6 5 4 3 4 6 7 7 7 7 6 6 5 4 5 9 8 7 7 6 6 4 5 6
5 12 22 21 11 7 3 3 3 3 2 3 2 2 3 1 6 6 4 3 6 4 3 4 4 3 5 5 3 3 2 3 3 5 5 5 6 6 7 7 7 7 6 4 3 5 7 7 7 5 6 5 3 4
9 9 16 14 6 5 3 2 1 2 2 1 2 2 2 3 4 5 5 5 5 4 5 3 3 2 2 2 4 3 2 4 4 3 3 5 6 7 7 7 7 6 7 5 4 4 5 7 6 5 5 5 4 4
14 15 14 11 8 2 3 1 1 1 3 2 2 2 3 4 2 5 5 4 4 4 3 2 3 3 4 2 3 4 4 5 5 4 2 2 4 6 6 6 5 6 5 5 4 5 3 2 2 5 5 5 5 5
5 3 2 5 3 2 2 2 1 2 3 1 3 4 4 4 4 4 3 2 4 2 1 2 2 2 3 4 4 4 5 5 4 5 5 3 3 4 4 4 5 4 4 4 5 5 5 5 5 5 5 5 5 5
1 4 2 2 0 2 1 2 3 1 3 1 3 4 4 3 2 1 2 4 2 3 4 4 4 4 4 5 4 4 6 6 5 4 4 5 3 2 3 4 5 5 5 6 6 5 5 5 4 4 5 5 5 5
5 2 2 2 3 4 2 3 4 3 3 1 3 3 2 2 2 2 2 3 3 3 3 4 6 5 6 5 5 4 5 7 4 4 4 4 4 3 3 4 5 5 5 4 4 5 5 6 5 4 7 7 4 4
3 3 4 3 3 2 1 2 1 3 3 3 2 3 3 2 2 2 1 2 4 1 3 6 5 4 3 4 3 4 5 4 4 2 2 4 2 2 4 4 4 5 6 4 5 5 5 5 5 5 7 4 6 6
3 5 3 4 1 3 3 2 1 3 2 2 1 2 1 2 2 2 3 4 2 3 4 5 5 5 5 3 2 3 5 5 5 4 3 5 3 2 1 2 4 5 5 4 4 5 4 4 4 5 6 5 8 7
0 3 4 5 2 2 4 4 5 4 4 3 3 3 3 3 0 4 3 4 3 4 5 6 5 4 2 3 3 3 4 5 5 4 3 4 4 4 3 4 3 3 3 5 5 4 4 3 5 6 5 7 7 6
2 4 4 4 4 2 2 2 4 3 4 3 2 2 3 3 4 3 2 1 3 2 3 4 4 5 4 3 2 2 4 5 6 6 4 4 3 4 4 4 4 4 4 6 5 4 3 3 3 3 3 1 4 5
4 4 2 4 2 2 4 4 4 2 1 2 2 3 4 2 3 2 2 1 4 5 5 3 3 3 3 3 3 2 2 3 5 5 4 1 1 1 4 4 4 7 5 5 5 5 4 3 4 4 7 5 2 4
3 3 1 4 4 4 4 2 4 4 3 2 2 2 2 0 1 2 1 3 4 5 4 3 1 2 2 2 2 2 4 5 6 6 7 3 1 3 2 3 3 3 4 4 3 6 7 4 4 5 6 6 5 5
0 1 3 5 4 3 2 2 1 3 2 3 4 3 4 4 3 2 4 3 3 3 3 3 2 3 3 4 2 2 2 4 4 5 5 5 5 4 4 5 4 3 4 5 5 2 3 2 2 0 3 5 5 4
4 3 4 3 4 2 1 2 3 4 3 4 4 4 2 2 3 3 3 2 3 3 3 3 2 1 4 3 2 4 3 2 4 7 6 5 5 3 4 4 4 3 5 6 6 5 4 3 3 3 4 6 8 6
2 3 4 4 2 2 1 1 1 2 1 2 1 2 2 3 0 2 3 3 3 2 1 3 3 1 1 2 2 3 6 4 5 3 6 5 3 3 5 4 2 4 5 5 5 5 6 6 5 7 7 8 9 9
4 4 4 4 2 1 2 1 2 2 2 2 1 2 1 4 2 3 2 1 3 3 3 4 2 2 5 7 6 4 6 5 7 6 7 6 6 6 4 4 4 3 3 3 3 4 6 8 7 6 7 8 8 9
Wind_Direction
268 268 266 272 274 272 279 278 271 266 269 285 221 213 210 199 193 170 260 206 178 205 282 5 1 77 56 94 138 238 55 344 44 99 145 225 186 242 150 171 168 156 144 197 104 145 275 214 80 173 202 179 141 136
262 263 263 267 270 271 273 275 269 268 265 284 226 201 197 204 188 169 263 264 157 160 236 282 283 111 121 168 136 35 166 156 187 99 198 125 7 43 117 217 349 128 169 183 165 214 242 274 174 127 118 118 100 103
260 260 260 262 264 267 269 274 273 271 265 282 223 195 196 200 185 176 257 289 64 154 305 71 223 218 85 96 152 121 324 159 50 175 161 172 119 121 128 225 351 348 111 117 88 23 73 93 76 103 135 137 126 139
259 257 259 261 258 261 264 267 272 269 270 292 211 184 199 191 183 171 212 252 174 159 147 254 183 105 129 102 95 117 133 60 107 73 103 132 155 152 200 193 158 213 91 159 293 88 89 49 111 135 131 130 113 118
251 258 260 261 259 259 259 262 263 265 270 282 206 178 193 181 168 148 241 259 267 171 179 184 87 108 104 104 92 89 94 91 82 59 83 207 229 87 339 51 239 176 188 156 215 206 156 199 187 160 109 118 134 127
247 258 259 259 259 256 254 254 256 258 256 266 200 184 189 160 126 105 273 232 273 161 118 134 221 129 103 95 101 104 111 96 96 133 197 269 318 105 128 229 263 111 112 174 192 181 170 167 112 123 124 130 121 120
246 254 257 258 253 245 250 252 249 252 254 247 236 180 181 157 138 212 229 277 322 57 128 78 64 132 134 104 49 49 41 97 106 130 107 147 343 92 143 200 260 250 358 321 211 114 82 58 140 135 120 115 99 93
245 250 254 251 245 246 251 250 245 243 244 248 196 170 160 138 108 185 291 287 4 108 91 127 140 120 146 129 119 155 79 40 349 168 20 150 14 79 253 238 250 265 282 117 97 99 137 142 123 117 128 117 108 106
243 249 248 245 242 245 242 255 234 224 233 239 181 130 114 144 178 153 212 46 9 116 149 157 141 185 149 124 114 42 104 89 281 165 236 106 198 217 223 219 233 195 145 128 131 107 91 96 143 140 135 126 117 134
242 244 238 234 239 242 262 233 219 222 211 164 128 80 153 172 137 124 32 29 24 278 183 151 153 165 122 119 129 106 91 177 161 236 115 161 246 235 224 218 178 163 156 148 136 150 134 121 137 137 131 125 128 125
238 242 239 236 235 232 240 257 203 204 147 73 111 130 200 120 66 45 60 136 219 176 177 199 136 133 265 125 147 174 171 169 150 253 138 236 266 248 228 209 168 174 171 174 167 184 171 159 151 144 144 129 121 128
237 232 242 235 210 248 241 239 161 161 114 155 112 94 88 76 79 156 182 178 213 200 192 159 150 158 159 112 109 208 157 117 233 164 115 249 255 258 104 108 108 104 76 51 113 135 139 134 139 133 130 127 129 124
222 239 245 186 202 205 206 182 146 142 132 62 64 105 165 145 158 184 179 180 187 172 167 150 130 133 74 71 85 123 151 205 95 87 217 221 185 131 120 111 84 59 49 68 227 145 130 132 121 128 135 131 126 141
227 234 246 217 202 207 230 166 151 144 90 112 150 137 177 183 212 195 178 183 202 133 143 142 117 121 132 91 147 137 221 105 185 215 224 189 170 146 125 112 102 87 61 85 108 121 123 128 137 140 137 142 147 151
241 240 246 256 236 244 150 158 158 83 111 142 176 182 202 214 203 188 214 124 110 136 139 109 62 91 110 126 178 158 168 215 208 217 204 183 163 137 127 123 128 131 107 83 115 116 112 119 124 140 153 154 158 160
291 274 231 213 167 139 136 116 58 85 113 324 260 196 231 158 221 163 142 120 137 127 90 65 100 106 170 160 156 198 170 215 220 205 186 152 153 145 143 144 157 161 148 92 141 126 132 126 142 162 158 162 169 177
313 286 112 110 95 84 63 67 67 51 70 239 217 252 251 313 121 121 135 133 140 95 110 107 117 191 144 169 193 173 195 199 179 168 160 153 153 163 156 154 160 166 165 148 90 139 151 154 138 127 138 184 169 166
58 77 93 93 93 73 59 48 88 182 229 256 319 12 23 272 113 118 86 76 107 93 93 172 138 136 158 174 193 215 144 124 148 158 160 159 151 150 147 166 171 174 177 173 108 153 145 144 157 175 172 195 173 178
84 80 71 61 78 92 79 4 336 64 279 313 6 318 220 64 57 85 76 78 90 107 89 42 92 145 197 200 128 130 119 130 140 150 162 170 164 164 170 168 176 173 167 172 160 176 161 173 184 179 186 172 180 196
64 50 46 29 34 103 99 78 197 347 51 312 300 40 87 85 116 82 84 69 77 70 51 86 192 218 157 165 148 136 134 130 117 106 144 175 162 151 173 167 171 169 157 161 174 181 155 164 169 192 189 179 180 212
40 4 236 183 207 240 145 199 102 174 113 88 299 51 35 35 63 69 57 42 64 110 161 201 166 109 106 111 116 116 121 124 148 156 172 174 208 173 182 183 164 150 161 176 180 213 182 199 216 195 198 198 211 217
331 313 314 264 306 96 103 300 168 222 78 191 36 66 72 61 66 90 121 59 150 228 179 139 166 139 124 135 147 139 144 121 119 103 94 121 151 176 166 186 159 179 181 184 187 187 197 220 212 189 185 221 212 223
316 302 333 318 82 50 310 10 50 50 88 43 43 68 65 88 203 79 90 183 228 234 169 148 166 156 148 158 129 134 151 149 155 175 189 197 199 185 172 177 163 157 173 211 177 174 206 223 222 196 198 204 174 202
315 357 348 346 101 86 50 9 26 90 68 51 83 98 125 167 102 81 231 230 238 197 126 166 129 105 65 100 141 189 188 153 152 143 167 142 150 221 179 177 174 178 183 171 180 198 214 226 204 192 181 163 185 187
349 293 104 322 170 123 143 139 147 82 104 130 144 114 177 88 111 190 218 253 183 179 163 144 141 144 145 190 208 220 194 148 154 177 228 178 171 113 72 191 185 192 179 149 177 197 205 206 190 188 202 178 181 204
312 241 147 191 168 173 159 168 178 135 124 165 235 144 84 97 237 242 218 198 166 156 161 157 151 141 157 175 175 189 196 166 141 159 229 181 169 158 182 175 148 277 183 164 143 152 169 183 181 194 195 190 198 192
280 238 208 216 164 175 121 61 91 107 172 129 171 104 121 192 223 245 322 317 130 116 113 131 134 143 177 200 214 216 183 160 167 181 179 174 185 197 155 164 182 217 156 153 143 148 157 190 187 249 225 219 179 192
260 7 209 185 177 176 110 117 143 80 10 329 111 168 188 204 189 228 185 105 105 96 96 107 117 118 148 181 186 182 179 159 130 110 79 60 311 164 156 150 145 156 118 122 126 113 118 154 195 130 143 156 162 110
278 263 123 68 57 60 70 69 93 188 218 216 189 98 194 347 125 113 118 121 109 93 105 104 18 88 57 70 77 90 143 143 138 142 155 185 255 292 179 154 143 136 146 142 132 149 135 124 104 151 163 140 127 138
172 198 62 47 10 78 12 131 211 215 149 135 110 64 43 37 16 27 52 56 77 104 152 157 175 149 167 146 149 86 142 131 149 143 168 196 213 191 156 147 169 210 166 156 160 142 57 94 63 8 112 114 133 140
125 98 96 72 80 22 52 61 37 59 63 65 62 94 130 142 0 9 73 77 81 76 80 94 62 19 125 91 172 144 127 280 237 200 176 175 191 186 183 186 166 217 189 173 171 181 180 188 189 149 106 143 157 141
59 100 118 109 139 253 88 116 129 103 73 100 130 108 54 72 108 301 310 83 84 64 345 142 139 63 95 73 63 131 138 126 100 112 111 113 132 207 217 230 260 198 200 183 178 206 193 187 192 181 177 172 164 168
69 83 95 95 108 158 268 136 133 149 120 133 106 114 116 141 189 233 298 93 155 173 189 180 156 107 111 142 147 118 83 87 82 75 72 90 110 82 74 81 74 74 111 146 165 161 161 164 174 176 177 185 191 165